Find Flock 4be-27

NORAD ID: 60513 Int'l Des: 2024-149 Owner: PLAN Country: US Constellation: planet operational
LEOCIRCULARRETROGRADESSO

实时位置

正在加载3D地球...

关于 Flock 4be-27

正在加载描述...

即将过境

Passes for default location (London). Set your location on the main map for personalized predictions.

高度历史

Loading altitude history...

两行轨道根数

1 60513U 24149AX 26107.19930058 .00005211 00000-0 16395-3 0 9992
2 60513 97.3831 189.0702 0005077 146.3923 213.7642 15.33384569 92791
Epoch: Apr 17, 2026 • Age: 13 hours

当前状态

高度 467.7 km
速度 7.63 km/s
星下点 -8.20°S, 109.27°W
发射日期 Aug 16, 2024
运行时间 1.6 years
类型 earth observation

技术详情

分类 Payload
质量 5.70 kg
干质量 5.70 kg
总质量 5.70 kg
长度 0.30 m
直径 0.10 m
跨度 0.30 m
形状 Box+2 pan
制造商 PLAN
平台类型 Cubesat 3U
阶段状态 In Orbit
所有者/国家 PLAN/US

Most Searched